Hourly Data Report for August 23, 2020

LYTTON RCS
BRITISH COLUMBIA
Current Station Operator: ECCC - MSC

50°13'28.000" N
121°34'55.000" W
225.00 m
1114746
71765
VLY

Download Data

Hourly Data (August 2020)
Hourly Data Report for August 23, 2020
TIME Temp Definition
°C
Dew Point Definition
°C
Rel Hum Definition
%
Wind Dir Definition
10's deg

Wind Spd Definition
km/h
Visibility Definition
km
Stn Press Definition
kPa
Hmdx Definition


Wind Chill Definition


Weather Definition


00:00 16.3 8.3 59 15 16   99.00     LegendNANA
01:00 15.4 8.4 63 15 15   99.02     LegendNANA
02:00 14.4 8.5 68 17 10   99.05     LegendNANA
03:00 13.0 8.5 74 20 4   99.09     LegendNANA
04:00 12.2 8.6 79 20 1   99.10     LegendNANA
05:00 11.3 8.7 84 17 4   99.12     LegendNANA
06:00 10.7 8.4 86 0 1   99.15     LegendNANA
07:00 11.7 9.1 84 20 2   99.16     LegendNANA
08:00 13.8 9.1 73 18 9   99.12     LegendNANA
09:00 15.4 7.5 59 18 4   99.08     LegendNANA
10:00 18.3 7.8 50   0   99.00     LegendNANA
11:00 19.9 7.1 44 33 1   98.91     LegendNANA
12:00 22.0 4.8 33 28 2   98.82     LegendNANA
13:00 23.8 5.5 31 25 1   98.71     LegendNANA
14:00 24.9 5.4 29 17 6   98.64     LegendNANA
15:00 25.7 5.6 27 17 6   98.59 25   LegendNANA
16:00 24.9 4.8 27   0   98.53     LegendNANA
17:00 24.6 6.2 31 33 1   98.47     LegendNANA
18:00 23.7 6.9 34 1 2   98.45     LegendNANA
19:00 21.9 7.8 40 15 5   98.47     LegendNANA
20:00 20.6 7.4 42 14 3   98.50     LegendNANA
21:00 19.6 7.6 46 15 8   98.51     LegendNANA
22:00 20.1 8.9 49 16 9   98.51     LegendNANA
23:00 20.2 9.9 52 17 23   98.50     LegendNANA

Notes on Data Quality.

Legend

  • E = Estimated
  • M = Missing
  • NA = Not Available*
  • [empty] = Indicates an unobserved value
Date modified: